[Date Prev][Date Next][Thread Prev][Thread Next] - [Date Index][Thread Index][Author Index]
2 Line ISS Keps 10-24
- Subject: [sarex] 2 Line ISS Keps 10-24
- From: "Dave Larsen PhD" <doc@xxxxxxxxxxx>
- Date: Fri, 24 Oct 2003 03:38:46 -0700
ISS
1 25544U 98067A 03297.32933144 .00021552 00000-0 24009-3 0 6945
2 25544 51.6293 89.3017 0006536 72.4931 16.3110 15.62754057281186
----
Via the sarex mailing list at AMSAT.ORG courtesy of AMSAT-NA.
To unsubscribe, send "unsubscribe sarex" to Majordomo@amsat.org
AMSAT Home